Regional Weather Roundup
Issued by NWS Upton, NY

Current Version | Previous Version | Graphics & Text | Print | Product List | Glossary Off
Versions: 1 2 3 4 5 6 7 8 9 10 11 12 13 14 15 16 17 18 19 20 21 22 23 24 25 26 27

000
ASUS41 KOKX 221409
RWROKX

REGIONAL WEATHER ROUNDUP
NATIONAL WEATHER SERVICE NEW YORK NY
1000 AM EDT MON MAY 22 2017

NOTE: "FAIR" INDICATES FEW OR NO CLOUDS BELOW 12,000 FEET WITH NO
SIGNIFICANT WEATHER AND/OR OBSTRUCTIONS TO VISIBILITY.

NYZ071-072-176-178-NJZ106-104-221500-
NEW YORK CITY METRO AREA

CITY           SKY/WX    TMP DP  RH WIND       PRES   REMARKS
Central Park   CLOUDY    55  53  93 VRB5      30.16F FOG
Wall St Helipt LGT RAIN  56  53  90 E6        30.15F
Bronx Bot Gard   N/A     54  50  87 SE2       30.17S
LaGuardia APRT LGT RAIN  58  52  80 SE10      30.14F
Kennedy INTL   LGT RAIN  55  54  96 E12       30.16F FOG
Breezy Point     N/A     52 N/A N/A E10G16      N/A
Newark/Liberty LGT RAIN  55  53  93 E6        30.14F FOG
Teterboro      LGT RAIN  55  52  89 SE6       30.14F FOG
$$

NYZ177-179-078>081-221500-
LONG ISLAND NEW YORK

CITY           SKY/WX    TMP DP  RH WIND       PRES   REMARKS
Jones Beach      N/A     54 N/A N/A SE8G14      N/A
Matinecock PT    N/A     55 N/A N/A SE1         N/A
Farmingdale    CLOUDY    54  51  90 SE13      30.16F
MacArthur/ISP  CLOUDY    56  51  84 S13       30.16F
Shirley        CLOUDY    57  53  86 SE12G21   30.18F
Mt Sinai Harb    N/A     55 N/A N/A SE6         N/A
Westhampton    CLOUDY    55  49  80 SE10      30.19F
East Hampton   CLOUDY    54  49  82 SE8       30.18F
Montauk          N/A     55  50  83 VRB7      30.20F
$$

NYZ052-065-067-221500-
HUDSON VALLEY

CITY           SKY/WX    TMP DP  RH WIND       PRES   REMARKS
White Plains   CLOUDY    55  50  83 SE9       30.14F
Larchmont Harb   N/A     54 N/A N/A SE10        N/A
Croton O-T Hud   N/A     55 N/A N/A SE3         N/A
Newburgh       NOT AVBL
Montgomery     CLOUDY    56  49  77 S7        30.12F
Poughkeepsie   CLOUDY    56  46  69 S8        30.13F
Albany         LGT RAIN  55  44  66 S12       30.09F
$$

NJZ001-105-106-008-010-013-015-019>022-104-221500-
NEW JERSEY

CITY           SKY/WX    TMP DP  RH WIND       PRES   REMARKS
Newark/Liberty LGT RAIN  55  53  93 E6        30.14F FOG
Teterboro      LGT RAIN  55  52  89 SE6       30.14F FOG
Caldwell       LGT RAIN  56  52  86 E3        30.14F FOG
Somerville     LGT RAIN  56  55  97 CALM      30.10F FOG
Linden         DRIZZLE   54  52  91 SE7       30.14F
Perth Amboy      N/A     54 N/A N/A E13         N/A
Sussex         CLOUDY    55  52  89 S5        30.13F
Andover          N/A     55  51  86 VRB3      30.12F
Trenton        CLOUDY    56  55  97 E7        30.10F
Millville      LGT RAIN  58  58 100 E5        30.09F FOG
Atlantic City  HVY RAIN  60  58  92 E5        30.10F FOG
Wrightstown    LGT RAIN  57  56  95 SE8       30.08F FOG
Toms River     NOT AVBL
Belmar         LGT RAIN  56  55  97 E12       30.13F FOG
$$

PAZ047>061-062-071-221500-
EASTERN PENNSYLVANIA

CITY           SKY/WX    TMP DP  RH WIND       PRES   REMARKS
Philadelphia   LGT RAIN  59  56  89 E6        30.10F
Allentown      CLOUDY    57  51  80 E7        30.10F
Scranton       CLOUDY    60  52  74 SW7       30.06F
$$

CTZ002-004>006-009-010-012-RIZ004-006-007-MAZ004-011-015-221500-
SOUTHERN NEW ENGLAND
 IN CT

CITY           SKY/WX    TMP DP  RH WIND       PRES   REMARKS
Bradley INTL   CLOUDY    55  43  63 S13       30.17F
Hartford       CLOUDY    54  42  64 S9        30.18S
Danbury        CLOUDY    53  48  83 S12G18    30.17F
Wtrbury/Oxford CLOUDY    54  43  66 S12       30.18S
Bridgeport     CLOUDY    57  50  77 SE10      30.17F
Meriden        CLOUDY    54  45  71 SE5       30.17F
New Haven      CLOUDY    56  49  77 SE9       30.17F
Chester        CLOUDY    54  50  87 SE7       30.18S
Groton         CLOUDY    55  50  83 SE13      30.19S
Wilimantic     CLOUDY    54  45  71 S7        30.19F

 IN RI

CITY           SKY/WX    TMP DP  RH WIND       PRES   REMARKS
Providence     CLOUDY    55  45  68 S7        30.20F
Block Island   CLOUDY    53  48  83 S12       30.20F
Westerly       CLOUDY    55  49  80 SE8       30.20F
 IN MA

CITY           SKY/WX    TMP DP  RH WIND       PRES   REMARKS
Boston         CLOUDY    54  44  69 S10       30.21F
Worcester      NOT AVBL
Westfield      CLOUDY    51  47  86 S5        30.16F
Provincetown   CLOUDY    53  42  66 S5        30.23F
Nantucket      CLOUDY    54  43  66 SE12      30.23F
$$

ANZ330-335-338-340-345-350-353-355-221500-
COASTAL MARINE OBSERVATIONS


STATION/POSITION TIME  SKY/WX   TEMP    WIND        PRES    VSBY  WAVE
                                AIR SEA DIR/SP/G                  HT/PER
                 (UTC)          (F)     (DEG/KT/KT) (MB)    (MI)  (FT/S)
NY HARB ENTRANCE 1250            55 56  120/ 14/ 16 1021.2          2/ 6
20 S FIRE ISLAND 1350            54 54  110/ 12/ 14 1020.7          3/ 7
GREAT SOUTH BAY  1330            56 65  140/ 14/ 16   N/A
23 SSW MONTAUK P 1250            54 54              1022.6          2/ 3
15 E BARNEGAT LI 1330               56                N/A           3/ 6
HUDSON CANYON    1250            55 53  120/ 10/ 10 1021.4          3/ 5
KINGS POINT      1342            54 57  190/  7/ 10 1021.0
EXECUTION ROCKS  1345            57                   N/A
CENTRAL LI SOUND NOT AVBL
EASTERN LI SOUND NOT AVBL
ROBBINS REEF     1342            54     120/ 10/ 13 1021.4
$$


>>>>>>>>>>>>>>>>>>>>>>>>>>>> KEY <<<<<<<<<<<<<<<<<<<<<<<<<<<
>                                                          <
>     SKY/WX - Sky Condition/Present Weather               <
>     TMP    - Temperature in Fahrenheit                   <
>     DP     - Dew Point in Fahrenheit                     <
>     RH     - Relative Humidity in Percent                <
>     WIND   - Direction (from) and Speed in MPH           <
>     PRES   - Mean Sea Level Pressure (inches of Hg)      <
>     WCI    - Wind Chill Index                            <
>     VSB    - VISIBILITY IN MILES                         <
>     HX     - HEAT INDEX                                  <
>     TC     - TEMPERATURE IN CELSIUS                      <
>     VRB    - VARIABLE WIND DIRECTION                     <
>                                                          <
>>>>>>>>>>>>>>>>>>>>>>>>>>>> KEY <<<<<<<<<<<<<<<<<<<<<<<<<<<




USA.gov is the U.S. government's official web portal to all federal, state and local government web resources and services.